Main page
METAR-TAF:

METAR-TAF

Airports :

Kédougou Airport

Kédougou, Senegal

latitude: 12-34N, longitude: 012-13W, elevation: 178 m

Current weather observation

The report was made 35 minutes ago, at 06:00 UTC
Wind 4 kt from the South
Temperature 23°C
Humidity 53%
Pressure 1009 hPa
Visibility 10 km or more
no clouds below 1500 m and no cumulonimbus

METAR: GOTK 080600Z 18004KT CAVOK 23/13 Q1009

Time: 06:35 (06:35 UTC)


TAF: missing

Weather observations and forecasts of more than 4000 airports (METAR and TAF reports).

The available stations are represented by yellow and red dots on the map.

Hover mouse over dot to see the name of the station.

Then click to see weather observations and forecasts.

To change the map : click on the green buttons with a black cross to zoom in, on the green button with a dash to zoom out, or on the green arrows for adjacent maps.


METAR-TAF: